[[{"header":{"parameterUnit":"m.s-1","parameterCategory":2,"la1":30.2991,"la2":30.254,"lo1":-89.0895,"lo2":-89.0444,"dy":0.0017,"dx":0.0017,"nx":28,"ny":28,"refTime":"2023-10-13T09:00:00:Z","depth":"0","parameterNumber":2,"parameterNumberName":"U-component_of_CURRENTS"},"data":[0,0,0,0,0,0,0,0,0,0,0,0,0,0,0,0,0,0,0,0,0,0,0,0,0,0,0,0,0,0,0,0,0,0,0,0,0,0,0,0,0,0,0,0,0,0,0,0,0,0,0,0,0,0,0,0,0,0,0.2264,0.2261,0,0.2126,0.2126,0.2125,0.2021,0.2019,0.2017,0.2015,0.2101,0.2105,0.211,0,0,0,0,0,0,0,0,0,0,0,0,0,0.2407,0.2406,0.2264,0.2261,0.2258,0.2126,0.2126,0.2125,0.2022,0.2019,0.2016,0.2014,0.21,0.2105,0.211,0,0,0,0,0,0,0,0,0,0,0,0,0,0.2329,0.2406,0.2265,0.218,0.217,0.2126,0.2126,0.2125,0.2022,0.2019,0.2016,0.2012,0.2098,0.2104,0.2111,0.222,0,0,0.2131,0.2134,0,0,0,0,0,0,0,0,0.2333,0.2326,0.2195,0.2185,0.2174,0.2074,0.2206,0.2163,0.2023,0.2094,0.2015,0.2011,0.2106,0.2112,0.2111,0.2224,0.2228,0.2132,0.2136,0.2138,0.214,0,0,0,0,0,0,0,0.2339,0.233,0.2224,0.2192,0.2179,0.2136,0.2124,0.2198,0.2137,0.2088,0.2076,0.2038,0.2103,0.2105,0.2113,0.2229,0.2131,0.2137,0.2141,0.2144,0.2368,0.237,0,0,0,0,0,0,0.2332,0.2336,0.2228,0.2219,0.223,0.2136,0.2122,0.2122,0.213,0.2122,0.2041,0.2034,0.2095,0.2105,0.2116,0.2203,0.2138,0.2145,0.2148,0.2366,0.2369,0.2371,0,0,0,0,0,0,0.2337,0.2326,0.2234,0.226,0.2243,0.2136,0.2137,0.2121,0.2106,0.209,0.2088,0.2039,0.2093,0.2106,0.22,0.2208,0.2148,0.2154,0.2364,0.2367,0.237,0.2408,0,0,0,0,0,0,0.2343,0.233,0.2354,0.2261,0.2241,0.219,0.2138,0.212,0.2082,0.2071,0.209,0.2093,0.2091,0.219,0.2207,0.2216,0.2159,0.2361,0.2365,0.2369,0.2404,0.2412,0.2418,0,0,0,0,0,0.2349,0.2383,0.2357,0.2343,0.227,0.2188,0.2177,0.2097,0.2085,0.2077,0.2122,0.2092,0.2222,0.22,0.2218,0.2228,0.236,0.2364,0.2369,0.2401,0.241,0.2418,0,0,0,0,0,0,0.2469,0.2372,0.2341,0.2349,0.2264,0.2164,0.215,0.2113,0.214,0.2134,0.2156,0.2166,0.2234,0.225,0.2224,0.2302,0.2273,0.2281,0.2291,0.23,0.2307,0.2263,0.2164,0,0,0,0,0,0.2505,0.25,0.2388,0.2395,0.2351,0.2264,0.2232,0.2161,0.2148,0.2151,0.2192,0.223,0.2273,0.2301,0.234,0.2423,0.2415,0.243,0.2437,0.2443,0.2421,0.2446,0.2453,0.2385,0.2385,0.2385,0,0,0.2545,0.2497,0.249,0.2418,0.2352,0.2292,0.2239,0.2163,0.2162,0.2169,0.2248,0.227,0.2303,0.2366,0.2396,0.2379,0.2464,0.2449,0.2453,0.2427,0.2452,0.2458,0.2463,0.2388,0.2388,0.2387,0,0,0.2571,0.2581,0.2547,0.2474,0.2351,0.232,0.23,0.2219,0.2233,0.2291,0.2291,0.2323,0.2426,0.2424,0.2441,0.2525,0.2502,0.2537,0.2541,0.2568,0.2573,0.2577,0.2591,0.2596,0.2539,0.2539,0.2539,0,0.2579,0.2574,0.2526,0.2446,0.2402,0.2337,0.2279,0.2294,0.2276,0.2309,0.2315,0.2411,0.2439,0.2482,0.2496,0.2534,0.2549,0.2505,0.2574,0.2578,0.2581,0.2595,0.26,0.2541,0.2541,0.2541,0.254,0,0.2546,0.2538,0.2512,0.2421,0.2384,0.2324,0.2294,0.2325,0.2364,0.236,0.243,0.2472,0.25,0.2523,0.2542,0.2573,0.2577,0.258,0.2544,0.259,0.2603,0.2607,0.2545,0.2544,0.2543,0.2542,0,0,0.2492,0.2488,0.2456,0.2447,0.2362,0.2321,0.2366,0.2375,0.2398,0.2437,0.2474,0.2543,0.2525,0.2542,0.2556,0.2583,0.263,0.2595,0.2596,0.2594,0.2691,0.2709,0.2715,0.2656,0.2657,0.2657,0.2696,0,0.2444,0.2366,0.2387,0.2353,0.2315,0.232,0.2377,0.2379,0.2425,0.2468,0.2497,0.2533,0.2549,0.2547,0.2579,0.261,0.2641,0.2618,0.2659,0.2659,0.2657,0.2721,0.2667,0.2698,0.27,0.27,0.2701,0,0.2345,0.2332,0.2284,0.2351,0.2333,0.2319,0.237,0.2413,0.2456,0.249,0.2497,0.251,0.2539,0.2549,0.2615,0.2607,0.2647,0.2677,0.268,0.2676,0.2685,0.2652,0.2705,0.2482,0.2707,0.2707,0.2706,0,0.2292,0.2265,0.2268,0.2247,0.2288,0.2307,0.2353,0.2384,0.2444,0.2469,0.2471,0.2507,0.2515,0.2572,0.2633,0.2629,0.271,0.2708,0.2762,0.2763,0.271,0.2705,0.2532,0.2759,0.2759,0.2759,0.2759,0,0.2231,0.2246,0.2234,0.2218,0.2245,0.2265,0.2306,0.2358,0.2398,0.2443,0.2458,0.2476,0.2526,0.2576,0.2632,0.2714,0.2712,0.2764,0.2779,0.2726,0.2723,0.252,0.2452,0.2761,0.276,0.276,0.276,0,0.222,0.2203,0.2208,0.2216,0.2217,0.2222,0.2288,0.233,0.2359,0.2401,0.2408,0.2458,0.2529,0.2589,0.2676,0.2711,0.2689,0.2818,0.2748,0.2755,0.2588,0.2528,0.239,0.2341,0.2866,0.2867,0.2868,0,0.2244,0.2218,0.2177,0.2177,0.2194,0.2206,0.2238,0.229,0.2329,0.2401,0.2424,0.2481,0.2542,0.2662,0.2745,0.2842,0.2707,0.2822,0.2801,0.2566,0.2511,0.241,0.237,0.2749,0.2749,0.2748,0.2748,0,0.2285,0.2234,0.224,0.2216,0.221,0.2238,0.2274,0.2281,0.2359,0.2394,0.247,0.2517,0.262,0.2686,0.2788,0.2841,0.2636,0.2819,0.2587,0.2415,0.228,0.2244,0.2721,0.2745,0.2746,0.2746,0.2746,0.2746,0.2313,0.23,0.2258,0.2281,0.2287,0.2293,0.2293,0.2334,0.2385,0.2423,0.2491,0.2532,0.2555,0.2704,0.2732,0.2617,0.2651,0.251,0.2464,0.2384,0.2305,0.2778,0.2816,0.2816,0.2817,0.2818,0.2818,0,0.2302,0.2314,0.2346,0.233,0.2374,0.235,0.2356,0.2332,0.2357,0.2412,0.247,0.2445,0.2456,0.2435,0.2386,0.2251,0.2184,0.2106,0.1895,0.1887,0.23,0.2258,0.2161,0.2161,0.2161,0.2162,0.2162,0.2162,0.2278,0.2285,0.232,0.2397,0.242,0.2378,0.2353,0.2306,0.2309,0.2257,0.2227,0.2237,0.2115,0.1943,0.1756,0.1738,0.1527,0.1496,0.1439,0.1633,0.1663,0.1692,0.1627,0.1399,0.1399,0.0974,0.097,0.0967]},{"header":{"parameterUnit":"m.s-1","parameterCategory":2,"la1":30.2991,"la2":30.254,"lo1":-89.0895,"lo2":-89.0444,"dy":0.0017,"dx":0.0017,"nx":28,"ny":28,"refTime":"2023-10-13T09:00:00:Z","depth":"0","parameterNumber":3,"parameterNumberName":"V-component_of_CURRENTS"},"data":[0,0,0,0,0,0,0,0,0,0,0,0,0,0,0,0,0,0,0,0,0,0,0,0,0,0,0,0,0,0,0,0,0,0,0,0,0,0,0,0,0,0,0,0,0,0,0,0,0,0,0,0,0,0,0,0,0,0,-0.1429,-0.1427,0,-0.1204,-0.1201,-0.1197,-0.1001,-0.0999,-0.0997,-0.0996,-0.1102,-0.1106,-0.111,0,0,0,0,0,0,0,0,0,0,0,0,0,-0.1495,-0.1496,-0.1429,-0.1427,-0.1424,-0.1204,-0.12,-0.1197,-0.1001,-0.0999,-0.0997,-0.0995,-0.11,-0.1106,-0.1111,0,0,0,0,0,0,0,0,0,0,0,0,0,-0.1382,-0.1496,-0.1429,-0.1305,-0.1292,-0.1205,-0.12,-0.1196,-0.1001,-0.0999,-0.0996,-0.0994,-0.1099,-0.1105,-0.1112,-0.1202,0,0,-0.1132,-0.1135,0,0,0,0,0,0,0,0,-0.1389,-0.1379,-0.1325,-0.1313,-0.1299,-0.1133,-0.1262,-0.1216,-0.1002,-0.1105,-0.0996,-0.0993,-0.115,-0.1151,-0.1101,-0.1207,-0.1212,-0.1132,-0.1136,-0.1139,-0.1141,0,0,0,0,0,0,0,-0.1397,-0.1387,-0.1333,-0.1323,-0.1307,-0.1194,-0.1176,-0.125,-0.1145,-0.1096,-0.1083,-0.1069,-0.1143,-0.1094,-0.1103,-0.1213,-0.1132,-0.1138,-0.1142,-0.1145,-0.1305,-0.1306,0,0,0,0,0,0,-0.1452,-0.1396,-0.134,-0.1327,-0.1346,-0.1196,-0.1176,-0.1184,-0.1137,-0.1126,-0.1071,-0.106,-0.1084,-0.1095,-0.1107,-0.1166,-0.1139,-0.1145,-0.1149,-0.1305,-0.1305,-0.1306,0,0,0,0,0,0,-0.1454,-0.145,-0.135,-0.1359,-0.1339,-0.12,-0.1209,-0.1181,-0.1113,-0.1115,-0.1109,-0.1031,-0.1083,-0.1097,-0.1179,-0.1171,-0.1148,-0.1154,-0.1305,-0.1305,-0.1306,-0.1317,0,0,0,0,0,0,-0.1458,-0.1453,-0.1486,-0.1365,-0.1341,-0.1268,-0.1211,-0.1178,-0.1113,-0.1096,-0.1082,-0.1087,-0.1082,-0.1169,-0.1185,-0.118,-0.1159,-0.1304,-0.1305,-0.1305,-0.1316,-0.1318,-0.1319,0,0,0,0,0,-0.1461,-0.1504,-0.149,-0.1483,-0.139,-0.1267,-0.1242,-0.113,-0.1114,-0.1065,-0.1098,-0.1087,-0.1181,-0.1178,-0.1196,-0.1191,-0.1304,-0.1305,-0.1305,-0.1316,-0.1318,-0.1319,0,0,0,0,0,0,-0.1528,-0.1486,-0.1466,-0.1491,-0.138,-0.1235,-0.1201,-0.1141,-0.1116,-0.111,-0.1134,-0.1144,-0.1198,-0.1211,-0.1205,-0.1234,-0.1226,-0.123,-0.1227,-0.1229,-0.1231,-0.1185,-0.1165,0,0,0,0,0,-0.1575,-0.1602,-0.1502,-0.1511,-0.1469,-0.1345,-0.1293,-0.1193,-0.1152,-0.1128,-0.1171,-0.1195,-0.1217,-0.1238,-0.1267,-0.1325,-0.1281,-0.1319,-0.1321,-0.1322,-0.1295,-0.1212,-0.1202,-0.1308,-0.1308,-0.1308,0,0,-0.1599,-0.1584,-0.1594,-0.1529,-0.1443,-0.1355,-0.1302,-0.1191,-0.1149,-0.1166,-0.1203,-0.1227,-0.1239,-0.127,-0.1292,-0.1281,-0.1278,-0.1323,-0.1324,-0.1295,-0.1212,-0.1201,-0.1191,-0.1309,-0.1309,-0.1309,0,0,-0.162,-0.1646,-0.1647,-0.1558,-0.1436,-0.1359,-0.1336,-0.1222,-0.1204,-0.1229,-0.1225,-0.1246,-0.1329,-0.1299,-0.1299,-0.1339,-0.1297,-0.1352,-0.132,-0.1241,-0.123,-0.1221,-0.1186,-0.1173,-0.1341,-0.1341,-0.1341,0,-0.1619,-0.1635,-0.1613,-0.1548,-0.1475,-0.1372,-0.1282,-0.1254,-0.1199,-0.1213,-0.1243,-0.1289,-0.132,-0.1297,-0.13,-0.1337,-0.1301,-0.1315,-0.1239,-0.1228,-0.1218,-0.1184,-0.117,-0.1342,-0.1342,-0.1342,-0.1342,0,-0.1597,-0.1597,-0.1574,-0.149,-0.1413,-0.1307,-0.1243,-0.1224,-0.1236,-0.1216,-0.1248,-0.1284,-0.1279,-0.1301,-0.1324,-0.1262,-0.1268,-0.1258,-0.1228,-0.1207,-0.1175,-0.1159,-0.1343,-0.1343,-0.1342,-0.1342,0,0,-0.1541,-0.1562,-0.1528,-0.1491,-0.1356,-0.1263,-0.1244,-0.1174,-0.1144,-0.1184,-0.117,-0.1224,-0.1228,-0.1225,-0.1242,-0.1193,-0.1124,-0.1199,-0.1195,-0.1154,-0.0974,-0.097,-0.0952,-0.1097,-0.1093,-0.1091,-0.0994,0,-0.1479,-0.1403,-0.1433,-0.1316,-0.124,-0.1183,-0.1171,-0.1104,-0.1106,-0.1102,-0.1131,-0.1137,-0.1205,-0.1185,-0.1153,-0.1134,-0.1077,-0.1152,-0.1009,-0.1005,-0.0992,-0.0931,-0.0833,-0.0736,-0.0978,-0.0976,-0.0974,0,-0.1359,-0.135,-0.125,-0.1229,-0.119,-0.1126,-0.1014,-0.1003,-0.0986,-0.0995,-0.0986,-0.1017,-0.0997,-0.1036,-0.097,-0.1017,-0.0985,-0.097,-0.0965,-0.0933,-0.0968,-0.0789,-0.0698,-0.0674,-0.0949,-0.0951,-0.0953,0,-0.1228,-0.1184,-0.1125,-0.1081,-0.105,-0.1021,-0.1006,-0.0952,-0.0961,-0.091,-0.0875,-0.0875,-0.0865,-0.0823,-0.0852,-0.0885,-0.0764,-0.0793,-0.0754,-0.0756,-0.0626,-0.0622,-0.0473,-0.0682,-0.0682,-0.0683,-0.0683,0,-0.1109,-0.1076,-0.1061,-0.102,-0.0956,-0.0936,-0.0889,-0.0864,-0.0839,-0.0814,-0.082,-0.0772,-0.0804,-0.0777,-0.0783,-0.0734,-0.07,-0.0719,-0.0706,-0.0637,-0.0634,-0.0573,-0.0617,-0.0679,-0.068,-0.0681,-0.0681,0,-0.1048,-0.1015,-0.0955,-0.0918,-0.0903,-0.0848,-0.087,-0.0834,-0.0795,-0.0738,-0.0721,-0.0699,-0.0651,-0.068,-0.0619,-0.0639,-0.0558,-0.0564,-0.0517,-0.05,-0.046,-0.051,-0.0388,-0.0357,-0.0491,-0.049,-0.0489,0,-0.1056,-0.0996,-0.0893,-0.0827,-0.0843,-0.0803,-0.0779,-0.0794,-0.0761,-0.0688,-0.0642,-0.0596,-0.0528,-0.0471,-0.0483,-0.0452,-0.0483,-0.0357,-0.039,-0.0409,-0.0455,-0.0519,-0.0507,-0.0241,-0.0238,-0.0235,-0.0234,0,-0.1067,-0.0984,-0.093,-0.0804,-0.0733,-0.0719,-0.0698,-0.0664,-0.0649,-0.0565,-0.0447,-0.0384,-0.0354,-0.0274,-0.0278,-0.0277,-0.0331,-0.031,-0.0295,-0.0208,-0.0293,-0.0273,-0.0405,-0.0213,-0.0215,-0.0216,-0.0217,-0.0218,-0.1048,-0.0971,-0.0814,-0.074,-0.0675,-0.0599,-0.057,-0.0514,-0.0428,-0.0279,-0.0281,-0.0107,-0.0065,-0.0049,-0.009,-0.0089,-0.0184,-0.006,-0.0111,-0.0168,-0.0148,-0.0271,-0.0095,-0.0096,-0.0098,-0.0099,-0.01,0,-0.0926,-0.0839,-0.0769,-0.0614,-0.0578,-0.0557,-0.0484,-0.0425,-0.0277,-0.0114,0.0006,0.0215,0.0284,0.0243,0.0212,0.0162,0.0108,0.012,0.0093,0.0102,0.0067,0.0069,0.025,0.025,0.025,0.025,0.025,0.025,-0.0807,-0.0655,-0.0642,-0.0527,-0.0478,-0.039,-0.0329,-0.0216,-0.0094,0.0175,0.0358,0.0449,0.0481,0.0396,0.0345,0.0306,0.025,0.0216,0.0153,0.0157,0.0137,0.0118,0.0116,0.0303,0.0303,0.0264,0.0263,0.0263]}],[{"header":{"parameterUnit":"m.s-1","parameterCategory":2,"la1":30.2991,"la2":30.254,"lo1":-89.0895,"lo2":-89.0444,"dy":0.0017,"dx":0.0017,"nx":28,"ny":28,"refTime":"2023-10-13T09:00:00:Z","depth":"2","parameterNumber":2,"parameterNumberName":"U-component_of_CURRENTS"},"data":[0,0,0,0,0,0,0,0,0,0,0,0,0,0,0,0,0,0,0,0,0,0,0,0,0,0,0,0,0,0,0,0,0,0,0,0,0,0,0,0,0,0,0,0,0,0,0,0,0,0,0,0,0,0,0,0,0,0,0.1143,0.1139,0,0.1006,0.1008,0.1009,0.1005,0.1003,0.1002,0.1001,0.0992,0.0993,0.0994,0,0,0,0,0,0,0,0,0,0,0,0,0,0.1063,0.107,0.1143,0.1138,0.1134,0.1006,0.1008,0.1009,0.1005,0.1003,0.1002,0.1,0.0992,0.0993,0.0995,0,0,0,0,0,0,0,0,0,0,0,0,0,0.1062,0.1072,0.1144,0.1092,0.1083,0.1006,0.1008,0.1009,0.1005,0.1003,0.1001,0.0999,0.0992,0.0993,0.0995,0.1047,0,0,0.1,0.1,0,0,0,0,0,0,0,0,0.1063,0.107,0.1104,0.1095,0.1085,0.0991,0.0974,0.1016,0.1006,0.1071,0.1001,0.0998,0.0983,0.0986,0.1011,0.1046,0.1046,0.1,0.1001,0.1001,0.1002,0,0,0,0,0,0,0,0.1064,0.1073,0.1123,0.1098,0.1086,0.0956,0.0961,0.0983,0.1069,0.1065,0.1056,0.0988,0.0984,0.1009,0.101,0.1046,0.1,0.1001,0.1002,0.1003,0.1222,0.1227,0,0,0,0,0,0,0.1035,0.1077,0.1127,0.1115,0.103,0.0959,0.0965,0.1051,0.1065,0.1055,0.099,0.0987,0.1007,0.1008,0.1009,0.11,0.1001,0.1003,0.1004,0.1217,0.1223,0.1228,0,0,0,0,0,0,0.1037,0.1048,0.1132,0.1055,0.1052,0.0961,0.1057,0.1048,0.1087,0.1001,0.0999,0.1033,0.1006,0.1007,0.1079,0.1098,0.1004,0.1005,0.1211,0.1219,0.1226,0.1262,0,0,0,0,0,0,0.1039,0.1054,0.1114,0.106,0.1054,0.1093,0.1055,0.1046,0.1029,0.1028,0.1037,0.1033,0.1004,0.1078,0.1081,0.1098,0.1006,0.1205,0.1215,0.1223,0.1255,0.1269,0.1282,0,0,0,0,0,0.1039,0.1055,0.1123,0.1123,0.1146,0.109,0.1083,0.1024,0.1034,0.1059,0.1096,0.1034,0.1137,0.1084,0.1086,0.1104,0.1201,0.1212,0.1223,0.1248,0.1267,0.1282,0,0,0,0,0,0,0.1046,0.1053,0.1125,0.1157,0.1148,0.1076,0.1048,0.1052,0.1107,0.1124,0.1098,0.1099,0.1168,0.1164,0.1105,0.1207,0.1159,0.1171,0.1177,0.1194,0.1208,0.116,0.1008,0,0,0,0,0,0.1088,0.1117,0.1124,0.1153,0.1163,0.115,0.1121,0.1112,0.1115,0.1138,0.1129,0.1164,0.1218,0.1227,0.1261,0.1317,0.1323,0.1339,0.1353,0.1364,0.1337,0.1437,0.1454,0.1264,0.1264,0.1264,0,0,0.1109,0.1088,0.1126,0.1153,0.1159,0.1174,0.1139,0.1115,0.1136,0.113,0.1175,0.1213,0.1254,0.1315,0.1343,0.1305,0.1426,0.1378,0.1386,0.1352,0.1449,0.1467,0.1483,0.1271,0.127,0.1269,0,0,0.1088,0.1169,0.1198,0.1196,0.1173,0.117,0.1181,0.1171,0.1193,0.1256,0.1267,0.1325,0.138,0.1397,0.1424,0.1548,0.1508,0.1569,0.1572,0.1672,0.1686,0.1698,0.1723,0.1737,0.156,0.156,0.156,0,0.1117,0.1192,0.1184,0.1186,0.1185,0.1188,0.124,0.1246,0.1251,0.1287,0.1277,0.1411,0.1416,0.1511,0.1532,0.1566,0.1601,0.1489,0.1682,0.1695,0.1707,0.1729,0.1744,0.1563,0.1563,0.1562,0.1562,0,0.113,0.1198,0.1189,0.1251,0.1248,0.1271,0.1283,0.1321,0.1355,0.1353,0.1461,0.1499,0.1572,0.1588,0.158,0.1678,0.1668,0.1694,0.1616,0.1727,0.1745,0.176,0.1568,0.1566,0.1566,0.1565,0,0,0.1202,0.1225,0.1225,0.1276,0.1308,0.129,0.1363,0.1427,0.1451,0.1497,0.1566,0.164,0.1648,0.1682,0.1699,0.1739,0.183,0.1733,0.1736,0.1712,0.2009,0.197,0.1981,0.19,0.1904,0.1906,0.1981,0,0.1263,0.1282,0.1286,0.1343,0.1398,0.1431,0.1471,0.1503,0.1536,0.1573,0.1649,0.1693,0.1691,0.1721,0.1785,0.1817,0.1874,0.1803,0.1942,0.1944,0.1861,0.2,0.1713,0.1755,0.1995,0.1998,0.2,0,0.1313,0.1312,0.139,0.1431,0.1462,0.1477,0.1555,0.1584,0.1638,0.1673,0.1756,0.177,0.1844,0.1831,0.1965,0.1928,0.197,0.1986,0.1992,0.1941,0.1934,0.1693,0.1773,0.2024,0.2022,0.2021,0.2019,0,0.1337,0.1386,0.1446,0.146,0.1502,0.1551,0.1581,0.1621,0.1659,0.1712,0.1754,0.1849,0.1899,0.2,0.2033,0.2015,0.2162,0.2162,0.2172,0.2167,0.1937,0.1908,0.2282,0.2282,0.2282,0.2281,0.2281,0,0.1394,0.1429,0.1449,0.1464,0.1508,0.1546,0.1611,0.1627,0.1706,0.1736,0.1792,0.1864,0.1944,0.203,0.2078,0.217,0.2233,0.218,0.2206,0.1946,0.1917,0.216,0.2144,0.2284,0.2284,0.2283,0.2283,0,0.1427,0.1439,0.1473,0.1512,0.1517,0.1531,0.1611,0.1672,0.1713,0.1775,0.1798,0.1889,0.1995,0.2069,0.2186,0.2212,0.2296,0.2317,0.1962,0.1946,0.2212,0.2199,0.2336,0.2336,0.2336,0.2336,0.2335,0,0.1458,0.149,0.1481,0.1511,0.1534,0.1582,0.1649,0.1668,0.1711,0.1797,0.183,0.1931,0.203,0.2189,0.219,0.2273,0.2336,0.2045,0.1972,0.2218,0.2229,0.2216,0.2203,0.1668,0.1662,0.1657,0.1654,0,0.1521,0.1503,0.1528,0.159,0.162,0.166,0.1718,0.1742,0.1776,0.1804,0.1888,0.1974,0.2073,0.1997,0.205,0.2078,0.2004,0.1959,0.2344,0.1714,0.1599,0.1606,0.1614,0.1613,0.1617,0.162,0.1622,0.1624,0.1567,0.1589,0.1627,0.1684,0.1725,0.1763,0.1765,0.1824,0.1832,0.18,0.1874,0.1827,0.1807,0.1755,0.1758,0.1704,0.1889,0.1733,0.1742,0.1757,0.1683,0.1576,0.1566,0.157,0.1573,0.1576,0.1578,0,0.1625,0.1685,0.1759,0.177,0.1826,0.1822,0.1837,0.1787,0.1761,0.1698,0.169,0.1411,0.1355,0.135,0.1196,0.1259,0.1227,0.1199,0.1062,0.1102,0.1138,0.1028,0.0741,0.0739,0.0737,0.0736,0,0,0.1652,0.1725,0.175,0.1827,0.1883,0.183,0.1808,0.169,0.1566,0.1416,0.1228,0.1258,0.124,0.0918,0.0925,0.0781,0.0952,0.0765,0.1421,0.1295,0.133,0.142,0.1295,0,0,0,0,0]},{"header":{"parameterUnit":"m.s-1","parameterCategory":2,"la1":30.2991,"la2":30.254,"lo1":-89.0895,"lo2":-89.0444,"dy":0.0017,"dx":0.0017,"nx":28,"ny":28,"refTime":"2023-10-13T09:00:00:Z","depth":"2","parameterNumber":3,"parameterNumberName":"V-component_of_CURRENTS"},"data":[0,0,0,0,0,0,0,0,0,0,0,0,0,0,0,0,0,0,0,0,0,0,0,0,0,0,0,0,0,0,0,0,0,0,0,0,0,0,0,0,0,0,0,0,0,0,0,0,0,0,0,0,0,0,0,0,0,0,0.009,0.0088,0,0.0182,0.0185,0.0189,0.0166,0.0161,0.0156,0.0152,0.0118,0.0121,0.0125,0,0,0,0,0,0,0,0,0,0,0,0,0,0.0298,0.0294,0.009,0.0088,0.0087,0.0181,0.0185,0.019,0.0166,0.0161,0.0155,0.015,0.0117,0.0121,0.0125,0,0,0,0,0,0,0,0,0,0,0,0,0,0.0308,0.0293,0.009,0.0064,0.006,0.018,0.0186,0.0191,0.0168,0.0161,0.0154,0.0147,0.0116,0.0121,0.0126,0.0296,0,0,0.0141,0.0143,0,0,0,0,0,0,0,0,0.0307,0.0305,0.0069,0.0065,0.0061,0.0128,0.0245,0.0209,0.0169,0.0159,0.0152,0.0144,0.0095,0.0101,0.018,0.0294,0.0293,0.0142,0.0145,0.0147,0.0148,0,0,0,0,0,0,0,0.0306,0.0302,0.0157,0.0067,0.0062,0.0183,0.0177,0.0243,0.0186,0.016,0.015,0.0114,0.0095,0.0175,0.0177,0.0292,0.0141,0.0146,0.0149,0.0151,0.0262,0.0262,0,0,0,0,0,0,0.0219,0.03,0.0154,0.0157,0.0135,0.0181,0.0176,0.0139,0.0188,0.0181,0.012,0.0112,0.017,0.0172,0.0176,0.0205,0.0147,0.0152,0.0155,0.0262,0.0262,0.0262,0,0,0,0,0,0,0.0224,0.0206,0.015,0.0207,0.0203,0.0178,0.0142,0.0143,0.0129,0.0153,0.0149,0.0086,0.0165,0.0168,0.0202,0.0208,0.0154,0.0159,0.0262,0.0262,0.0262,0.0373,0,0,0,0,0,0,0.023,0.0208,0.0152,0.02,0.0195,0.0173,0.0145,0.0149,0.0108,0.0097,0.0126,0.0121,0.0159,0.0195,0.0208,0.0214,0.0163,0.0262,0.0262,0.0262,0.037,0.0377,0.0383,0,0,0,0,0,0.0238,0.0263,0.015,0.0129,0.0119,0.017,0.0185,0.0167,0.0111,0.0128,0.0152,0.0115,0.0198,0.0203,0.0217,0.0224,0.0262,0.0262,0.0262,0.0367,0.0376,0.0383,0,0,0,0,0,0,0.0317,0.0259,0.0138,0.0127,0.0082,0.0152,0.0148,0.0133,0.018,0.0119,0.0168,0.0172,0.0189,0.019,0.0193,0.0243,0.0203,0.0206,0.0278,0.0286,0.0293,0.0284,0.0167,0,0,0,0,0,0.0289,0.0301,0.0207,0.0189,0.0127,0.0108,0.0112,0.0078,0.0113,0.0122,0.0202,0.0213,0.0226,0.0234,0.0271,0.0339,0.0304,0.0327,0.0334,0.0341,0.0336,0.0269,0.027,0.0261,0.0261,0.0261,0,0,0.0286,0.0275,0.0252,0.0205,0.0151,0.0147,0.0101,0.0063,0.0121,0.0112,0.0259,0.0249,0.0243,0.0316,0.0318,0.0305,0.0338,0.034,0.0347,0.0338,0.0269,0.027,0.0271,0.026,0.026,0.0261,0,0,0.0317,0.0261,0.0219,0.0206,0.0092,0.0141,0.0095,0.0124,0.0159,0.0269,0.0246,0.0239,0.0365,0.0363,0.0361,0.0416,0.0369,0.0398,0.0449,0.0385,0.0386,0.0385,0.041,0.0411,0.041,0.041,0.041,0,0.0257,0.0235,0.0221,0.0182,0.0164,0.0121,0.0065,0.0169,0.0256,0.0296,0.0297,0.0356,0.0388,0.0361,0.0426,0.0432,0.0414,0.0432,0.0396,0.0394,0.0392,0.0416,0.0416,0.0415,0.0415,0.0414,0.0414,0,0.0256,0.0203,0.0197,0.0148,0.0161,0.0136,0.0173,0.0266,0.0319,0.0402,0.0402,0.0429,0.042,0.0446,0.05,0.0469,0.0473,0.041,0.0384,0.04,0.0425,0.0423,0.0423,0.0421,0.0419,0.0418,0,0,0.0178,0.0167,0.016,0.0123,0.0122,0.0168,0.0258,0.0335,0.0412,0.0474,0.0496,0.0563,0.0491,0.0477,0.044,0.0456,0.0515,0.0471,0.0465,0.0514,0.0441,0.0427,0.0423,0.0442,0.0441,0.044,0.0491,0,0.0108,0.0096,0.0122,0.0146,0.0102,0.0154,0.0291,0.038,0.0495,0.0592,0.0486,0.0538,0.0514,0.0485,0.0456,0.0484,0.0502,0.0512,0.0401,0.0399,0.0396,0.0415,0.0519,0.0568,0.0488,0.0487,0.0487,0,0.0079,0.0081,0.0055,0.0132,0.0107,0.0174,0.0342,0.0446,0.0553,0.0596,0.0504,0.0497,0.045,0.0434,0.0384,0.0387,0.0434,0.0471,0.047,0.0405,0.0377,0.0521,0.0566,0.0482,0.0482,0.0483,0.0483,0,0.0111,0.0083,0.0106,0.0119,0.0182,0.0209,0.0278,0.0427,0.0521,0.0572,0.0591,0.0476,0.0396,0.0368,0.0418,0.043,0.0389,0.0379,0.0393,0.0396,0.0434,0.044,0.0364,0.0364,0.0364,0.0364,0.0364,0,0.0138,0.0154,0.0127,0.0139,0.0198,0.0214,0.0308,0.0407,0.0446,0.052,0.0526,0.0468,0.0395,0.036,0.0391,0.0352,0.0318,0.0412,0.0388,0.0482,0.0492,0.035,0.0347,0.0366,0.0365,0.0365,0.0365,0,0.0172,0.0198,0.0192,0.0185,0.0204,0.0245,0.0292,0.0367,0.0438,0.0476,0.0484,0.0472,0.0447,0.0402,0.0394,0.0331,0.0332,0.0341,0.0501,0.0493,0.0416,0.0418,0.0383,0.0382,0.0382,0.0382,0.0381,0,0.0192,0.0166,0.0165,0.0205,0.0189,0.0229,0.0252,0.0332,0.0405,0.0473,0.0467,0.0476,0.0482,0.0404,0.0385,0.0399,0.0339,0.0452,0.0479,0.0427,0.0408,0.0411,0.0415,0.0624,0.0626,0.0627,0.0628,0,0.0145,0.0142,0.016,0.0179,0.0221,0.0251,0.0285,0.0331,0.0427,0.053,0.0585,0.0611,0.0533,0.055,0.0521,0.0522,0.0449,0.0479,0.0344,0.0575,0.0649,0.0632,0.0628,0.0641,0.0639,0.0639,0.0638,0.0637,0.0095,0.011,0.0152,0.0205,0.0229,0.0268,0.0316,0.0385,0.0532,0.0706,0.07,0.0797,0.0707,0.0759,0.0642,0.0535,0.0579,0.0572,0.0571,0.0567,0.0557,0.0622,0.0614,0.0613,0.0612,0.0611,0.061,0,0.0091,0.0131,0.0166,0.0268,0.0275,0.0293,0.0361,0.0446,0.0607,0.078,0.0948,0.1,0.1021,0.0844,0.0751,0.0671,0.0679,0.0591,0.0644,0.0638,0.0632,0.0623,0.0699,0.0697,0.0695,0.0694,0,0,0.0131,0.0193,0.0245,0.0334,0.0339,0.0412,0.0447,0.0574,0.0734,0.0958,0.1105,0.1297,0.1098,0.1026,0.0906,0.0782,0.0712,0.0757,0.073,0.081,0.0801,0.0699,0.069,0,0,0,0,0]}],[{"header":{"parameterUnit":"m.s-1","parameterCategory":2,"la1":30.2991,"la2":30.254,"lo1":-89.0895,"lo2":-89.0444,"dy":0.0017,"dx":0.0017,"nx":28,"ny":28,"refTime":"2023-10-13T09:00:00:Z","depth":"4","parameterNumber":2,"parameterNumberName":"U-component_of_CURRENTS"},"data":[0,0,0,0,0,0,0,0,0,0,0,0,0,0,0,0,0,0,0,0,0,0,0,0,0,0,0,0,0,0,0,0,0,0,0,0,0,0,0,0,0,0,0,0,0,0,0,0,0,0,0,0,0,0,0,0,0,0,-0.0461,-0.0461,0,-0.0446,-0.0446,-0.0445,-0.0375,-0.0374,-0.0372,-0.0371,-0.0411,-0.0413,-0.0415,0,0,0,0,0,0,0,0,0,0,0,0,0,-0.0408,-0.0409,-0.0461,-0.0461,-0.0461,-0.0446,-0.0446,-0.0445,-0.0375,-0.0374,-0.0372,-0.0371,-0.041,-0.0413,-0.0415,0,0,0,0,0,0,0,0,0,0,0,0,0,-0.0413,-0.0409,-0.0461,-0.0427,-0.0424,-0.0447,-0.0446,-0.0445,-0.0376,-0.0374,-0.0372,-0.037,-0.0409,-0.0412,-0.0416,-0.0477,0,0,-0.0426,-0.0428,0,0,0,0,0,0,0,0,-0.0412,-0.0414,-0.0432,-0.0429,-0.0426,-0.0414,-0.0442,-0.046,-0.0376,-0.039,-0.0371,-0.0369,-0.0421,-0.0423,-0.0419,-0.0479,-0.0481,-0.0427,-0.0429,-0.043,-0.0431,0,0,0,0,0,0,0,-0.0412,-0.0414,-0.0451,-0.0432,-0.0429,-0.0406,-0.0404,-0.0444,-0.0415,-0.0389,-0.0385,-0.0389,-0.0418,-0.0415,-0.0419,-0.0481,-0.0426,-0.043,-0.0432,-0.0433,-0.0535,-0.0536,0,0,0,0,0,0,-0.0425,-0.0415,-0.0452,-0.0451,-0.0418,-0.0409,-0.0407,-0.0417,-0.0413,-0.0411,-0.0391,-0.0386,-0.0411,-0.0415,-0.0421,-0.0411,-0.043,-0.0433,-0.0435,-0.0535,-0.0535,-0.0536,0,0,0,0,0,0,-0.0424,-0.0429,-0.0453,-0.0435,-0.0436,-0.0413,-0.0424,-0.0418,-0.0393,-0.0415,-0.0413,-0.0371,-0.0409,-0.0416,-0.0438,-0.0415,-0.0435,-0.0438,-0.0534,-0.0535,-0.0536,-0.0445,0,0,0,0,0,0,-0.0423,-0.0428,-0.0442,-0.0436,-0.0438,-0.0454,-0.0426,-0.0419,-0.0402,-0.0395,-0.0399,-0.04,-0.0408,-0.0432,-0.0441,-0.042,-0.0441,-0.0533,-0.0534,-0.0535,-0.0447,-0.0442,-0.0439,0,0,0,0,0,-0.0421,-0.0431,-0.0443,-0.0447,-0.0457,-0.0454,-0.0452,-0.0426,-0.0403,-0.0395,-0.0395,-0.0399,-0.0446,-0.0436,-0.0446,-0.0425,-0.0532,-0.0534,-0.0535,-0.0449,-0.0443,-0.0439,0,0,0,0,0,0,-0.0409,-0.0426,-0.0437,-0.0453,-0.0456,-0.0443,-0.044,-0.0423,-0.0415,-0.0398,-0.0413,-0.0417,-0.0424,-0.0455,-0.0444,-0.0463,-0.0489,-0.0493,-0.042,-0.0415,-0.0411,-0.0385,-0.0444,0,0,0,0,0,-0.0422,-0.044,-0.0447,-0.0465,-0.0465,-0.0455,-0.0451,-0.0424,-0.042,-0.041,-0.0423,-0.0436,-0.0445,-0.0452,-0.0475,-0.0497,-0.0503,-0.0493,-0.0488,-0.0484,-0.0474,-0.0495,-0.049,-0.0541,-0.0541,-0.0541,0,0,-0.043,-0.044,-0.0454,-0.0466,-0.0467,-0.0465,-0.0445,-0.0425,-0.0407,-0.0423,-0.0417,-0.0426,-0.0451,-0.0455,-0.0462,-0.0472,-0.0466,-0.0486,-0.0482,-0.0473,-0.0496,-0.049,-0.0486,-0.0542,-0.0542,-0.0542,0,0,-0.0443,-0.0458,-0.0473,-0.047,-0.0465,-0.0459,-0.0451,-0.0436,-0.041,-0.0406,-0.0407,-0.041,-0.0436,-0.0443,-0.0448,-0.0451,-0.0445,-0.0452,-0.0404,-0.0424,-0.0419,-0.0415,-0.037,-0.0363,-0.0448,-0.0447,-0.0447,0,-0.0448,-0.0468,-0.0476,-0.0476,-0.047,-0.0457,-0.0448,-0.043,-0.0421,-0.0401,-0.0392,-0.0408,-0.0428,-0.0425,-0.0403,-0.0437,-0.0421,-0.041,-0.0414,-0.0411,-0.0408,-0.0364,-0.0357,-0.0443,-0.0444,-0.0444,-0.0444,0,-0.0461,-0.0475,-0.0477,-0.0485,-0.0479,-0.0463,-0.0443,-0.0421,-0.0391,-0.0374,-0.0352,-0.0372,-0.0375,-0.038,-0.0377,-0.0367,-0.0349,-0.0403,-0.0414,-0.0397,-0.0352,-0.0346,-0.0437,-0.0439,-0.044,-0.0441,0,0,-0.0465,-0.0485,-0.0484,-0.0479,-0.0467,-0.0453,-0.0428,-0.0398,-0.0363,-0.0347,-0.0313,-0.0311,-0.0303,-0.0311,-0.0322,-0.0325,-0.0271,-0.0332,-0.0335,-0.0262,-0.0249,-0.0207,-0.0196,-0.0313,-0.0313,-0.0313,-0.0207,0,-0.0469,-0.048,-0.0479,-0.047,-0.0468,-0.0434,-0.0414,-0.0375,-0.0343,-0.0314,-0.0298,-0.0279,-0.0283,-0.0262,-0.0266,-0.028,-0.0259,-0.0291,-0.0299,-0.0298,-0.0244,-0.0191,-0.0312,-0.0203,-0.0202,-0.0201,-0.02,0,-0.0465,-0.0476,-0.0485,-0.0451,-0.0442,-0.0417,-0.0357,-0.0334,-0.029,-0.025,-0.0222,-0.0223,-0.0198,-0.0222,-0.0206,-0.0215,-0.021,-0.0221,-0.0219,-0.021,-0.0248,-0.0241,-0.019,-0.0191,-0.0192,-0.0192,-0.0193,0,-0.0459,-0.0455,-0.0466,-0.0459,-0.044,-0.0392,-0.035,-0.0303,-0.0261,-0.0206,-0.0165,-0.016,-0.0121,-0.0145,-0.0124,-0.0162,-0.01,-0.0181,-0.0134,-0.0129,-0.0238,-0.0245,-0.0174,-0.0174,-0.0174,-0.0174,-0.0175,0,-0.044,-0.0443,-0.0451,-0.045,-0.0395,-0.0374,-0.0303,-0.0244,-0.019,-0.014,-0.0127,-0.009,-0.0098,-0.0066,-0.009,-0.0051,-0.0071,-0.0093,-0.0102,-0.0197,-0.0201,-0.023,-0.0238,-0.017,-0.0171,-0.0172,-0.0173,0,-0.0431,-0.0456,-0.0462,-0.0435,-0.0397,-0.0351,-0.0236,-0.0197,-0.0134,-0.0068,-0.004,0.0002,0.0046,0.0052,0.0046,0.0025,0.0019,0.0035,0.0018,0.0001,-0.0003,-0.0008,0.0075,0.0078,0.0079,0.0081,0.0082,0,-0.0427,-0.0447,-0.0444,-0.0412,-0.0382,-0.0303,-0.0244,-0.0159,-0.0121,-0.0022,0.0002,0.0083,0.0105,0.0157,0.0139,0.0145,0.0117,0.0145,-0.0002,0.0039,0.0021,0.0013,0.0006,0.0086,0.0086,0.0087,0.0087,0,-0.0416,-0.0446,-0.0442,-0.0396,-0.0329,-0.0277,-0.0177,-0.0141,-0.0065,-0.0008,0.006,0.0095,0.0164,0.0163,0.0227,0.0192,0.0128,0.0163,0.0156,0.0017,0.0052,0.0031,0.0021,0.0094,0.0093,0.0092,0.0092,0,-0.04,-0.0392,-0.0402,-0.0347,-0.03,-0.0263,-0.0208,-0.0138,-0.0085,0.0019,0.0042,0.0108,0.0165,0.0192,0.0214,0.0238,0.0178,0.0132,0.0125,0.0117,0.0078,0.0125,0.0209,0,0,0,0,0,-0.0354,-0.0344,-0.0326,-0.0295,-0.0279,-0.0251,-0.018,-0.0149,-0.0074,-0.0024,0.0017,0.0072,0.0138,0.0154,0.0178,0.0199,0.0166,0.0224,0.0104,0.0131,0.0123,0.0071,0,0,0,0,0,0,-0.032,-0.0304,-0.0325,-0.0293,-0.0273,-0.0247,-0.0217,-0.0167,-0.0141,-0.0059,-0.0033,0.0049,0.0096,0.012,0.0166,0.0179,0.0098,0.0272,0.0272,0.0135,0.0128,0.0122,0.0066,0,0,0,0,0]},{"header":{"parameterUnit":"m.s-1","parameterCategory":2,"la1":30.2991,"la2":30.254,"lo1":-89.0895,"lo2":-89.0444,"dy":0.0017,"dx":0.0017,"nx":28,"ny":28,"refTime":"2023-10-13T09:00:00:Z","depth":"4","parameterNumber":3,"parameterNumberName":"V-component_of_CURRENTS"},"data":[0,0,0,0,0,0,0,0,0,0,0,0,0,0,0,0,0,0,0,0,0,0,0,0,0,0,0,0,0,0,0,0,0,0,0,0,0,0,0,0,0,0,0,0,0,0,0,0,0,0,0,0,0,0,0,0,0,0,0.0601,0.0601,0,0.0606,0.0607,0.0607,0.0661,0.0662,0.0663,0.0664,0.0652,0.0651,0.0649,0,0,0,0,0,0,0,0,0,0,0,0,0,0.0577,0.0578,0.0601,0.0601,0.0601,0.0606,0.0607,0.0607,0.0661,0.0662,0.0664,0.0665,0.0652,0.0651,0.0649,0,0,0,0,0,0,0,0,0,0,0,0,0,0.0588,0.0578,0.0601,0.0626,0.0628,0.0606,0.0607,0.0607,0.0661,0.0662,0.0664,0.0665,0.0653,0.0651,0.0649,0.0603,0,0,0.0643,0.0642,0,0,0,0,0,0,0,0,0.0588,0.059,0.0623,0.0624,0.0627,0.0632,0.0594,0.0604,0.066,0.0651,0.0664,0.0666,0.0641,0.064,0.0641,0.0603,0.0602,0.0643,0.0641,0.0641,0.064,0,0,0,0,0,0,0,0.0587,0.0589,0.0606,0.0622,0.0625,0.0616,0.0621,0.0596,0.0638,0.0652,0.0655,0.0651,0.0642,0.0643,0.0641,0.0602,0.0643,0.0641,0.064,0.0639,0.0642,0.0643,0,0,0,0,0,0,0.0582,0.0589,0.0606,0.0606,0.0608,0.0616,0.062,0.0631,0.0639,0.0641,0.065,0.0654,0.0646,0.0644,0.0641,0.0649,0.0641,0.0639,0.0637,0.0641,0.0643,0.0644,0,0,0,0,0,0,0.0582,0.0584,0.0605,0.0594,0.0596,0.0614,0.0626,0.063,0.0655,0.0637,0.064,0.0672,0.0647,0.0644,0.064,0.0647,0.0638,0.0636,0.0639,0.0641,0.0643,0.0625,0,0,0,0,0,0,0.0581,0.0584,0.0601,0.0594,0.0597,0.06,0.0624,0.0629,0.0647,0.0653,0.0656,0.0656,0.0648,0.0643,0.0638,0.0644,0.0634,0.0638,0.064,0.0643,0.0624,0.0627,0.0628,0,0,0,0,0,0.0581,0.061,0.0602,0.0604,0.0616,0.06,0.06,0.062,0.0646,0.0651,0.0661,0.0657,0.0656,0.0641,0.0635,0.0641,0.0637,0.064,0.0642,0.0623,0.0626,0.0628,0,0,0,0,0,0,0.0607,0.0617,0.0609,0.0638,0.0615,0.0608,0.0629,0.0628,0.064,0.0656,0.0651,0.065,0.0663,0.0654,0.0638,0.0657,0.0654,0.0656,0.0642,0.0644,0.0646,0.0651,0.0633,0,0,0,0,0,0.0614,0.064,0.0622,0.0637,0.064,0.0632,0.0635,0.0632,0.0634,0.0644,0.065,0.0661,0.0664,0.0657,0.0664,0.0645,0.0643,0.0657,0.0659,0.066,0.0665,0.0633,0.0631,0.0654,0.0654,0.0654,0,0,0.0621,0.0632,0.0643,0.0643,0.0643,0.0629,0.0641,0.0644,0.0641,0.0635,0.0664,0.067,0.0668,0.0668,0.0672,0.0659,0.0663,0.0664,0.0665,0.0668,0.0636,0.0633,0.0631,0.0656,0.0655,0.0655,0,0,0.0628,0.0665,0.0674,0.0653,0.064,0.0645,0.0647,0.0644,0.0668,0.0671,0.068,0.068,0.0696,0.0678,0.0674,0.0687,0.0685,0.071,0.07,0.0669,0.0665,0.0662,0.0688,0.0687,0.0695,0.0695,0.0695,0,0.0633,0.0651,0.0667,0.0646,0.0659,0.0655,0.0655,0.0652,0.0646,0.0657,0.0691,0.0704,0.07,0.067,0.069,0.0686,0.0694,0.0681,0.0667,0.0664,0.0661,0.0687,0.0686,0.0695,0.0695,0.0695,0.0695,0,0.0613,0.063,0.0641,0.0633,0.0638,0.0645,0.0639,0.0644,0.0692,0.0685,0.0705,0.07,0.0706,0.0706,0.0705,0.0681,0.0705,0.0679,0.0649,0.0656,0.0685,0.0685,0.0694,0.0694,0.0694,0.0694,0,0,0.0626,0.0637,0.0636,0.064,0.065,0.0646,0.0657,0.0668,0.0663,0.068,0.069,0.07,0.0704,0.0702,0.0687,0.0655,0.0652,0.0665,0.0664,0.0673,0.0632,0.0634,0.0634,0.0618,0.0617,0.0617,0.067,0,0.0618,0.0607,0.0632,0.0634,0.0642,0.0659,0.0665,0.0653,0.0682,0.0674,0.067,0.0693,0.0698,0.0714,0.0674,0.0661,0.0647,0.0644,0.064,0.0641,0.0624,0.063,0.0614,0.067,0.067,0.067,0.0669,0,0.0588,0.0598,0.0626,0.0653,0.0664,0.0679,0.0714,0.0712,0.0681,0.0702,0.0694,0.0694,0.0674,0.0683,0.0651,0.0654,0.0657,0.0642,0.0642,0.0646,0.064,0.0656,0.0669,0.0669,0.0669,0.0669,0.0669,0,0.0576,0.0598,0.0656,0.0653,0.0671,0.0716,0.075,0.0733,0.0753,0.0739,0.0753,0.0705,0.0741,0.069,0.0692,0.0677,0.0659,0.0624,0.063,0.0633,0.0621,0.0623,0.0604,0.0604,0.0604,0.0604,0.0604,0,0.0556,0.0577,0.0664,0.0662,0.0726,0.0745,0.0798,0.0794,0.0806,0.0821,0.0794,0.0795,0.0751,0.0733,0.0693,0.0678,0.0669,0.064,0.0634,0.0621,0.0623,0.0623,0.0624,0.0606,0.0605,0.0605,0.0605,0,0.051,0.0556,0.0622,0.0699,0.072,0.0783,0.0861,0.0863,0.0894,0.0916,0.0937,0.0904,0.0899,0.0843,0.0789,0.0726,0.0674,0.0676,0.0717,0.0711,0.0673,0.0674,0.0672,0.0672,0.0672,0.0672,0.0673,0,0.0481,0.0517,0.0654,0.0716,0.0777,0.0857,0.0877,0.0911,0.0939,0.0976,0.0986,0.1005,0.0975,0.0889,0.0831,0.0759,0.074,0.0714,0.0642,0.068,0.0674,0.0674,0.0674,0.0673,0.0673,0.0673,0.0673,0,0.0461,0.0559,0.0618,0.0744,0.0828,0.0889,0.0957,0.0953,0.0996,0.1022,0.1018,0.0975,0.0972,0.0891,0.087,0.0799,0.0707,0.0716,0.0714,0.0646,0.0681,0.0675,0.0675,0.0674,0.0674,0.0674,0.0673,0,0.0493,0.0562,0.0686,0.0789,0.0888,0.0943,0.0937,0.0971,0.0985,0.1014,0.1014,0.0992,0.0999,0.0918,0.087,0.0827,0.0791,0.0717,0.0714,0.0713,0.069,0.0739,0.0749,0,0,0,0,0,0.0538,0.0617,0.0707,0.0843,0.0937,0.099,0.1005,0.099,0.0992,0.0985,0.1006,0.0992,0.093,0.0895,0.0853,0.0873,0.079,0.0816,0.0704,0.0677,0.0677,0.064,0,0,0,0,0,0,0.0589,0.0688,0.0717,0.0872,0.0957,0.1046,0.1041,0.1017,0.1004,0.1002,0.0965,0.0978,0.092,0.0994,0.0867,0.0857,0.0767,0.081,0.0807,0.0678,0.0677,0.0676,0.0639,0,0,0,0,0]}]]